[[{"header":{"parameterUnit":"m.s-1","parameterCategory":1,"la1":30.2991,"la2":30.254,"lo1":-89.0895,"lo2":-89.0444,"dy":0.0017,"dx":0.0017,"nx":28,"ny":28,"refTime":"2025-03-01T09:00:00:Z","depth":0,"parameterNumber":2,"parameterNumberName":"U-component_of_WINDS"},"data":[0,0,0,0,0,0,0,0,0,0,0,0,0,0,0,0,0,0,0,0,0,0,0,0,0,0,0,0,0,0,0,0,0,0,0,0,0,0,0,0,0,0,0,0,0,0,0,0,0,0,0,0,0,0,0,0,0,0,-3.2106,-3.2106,0,-3.2138,-3.2138,-3.2138,-3.2038,-3.2035,-3.2032,-3.2029,-3.2062,-3.2066,-3.207,0,0,0,0,0,0,0,0,0,0,0,0,0,-3.1959,-3.1962,-3.2106,-3.2106,-3.2107,-3.2138,-3.2138,-3.2138,-3.2038,-3.2035,-3.2031,-3.2028,-3.2061,-3.2066,-3.207,0,0,0,0,0,0,0,0,0,0,0,0,0,-3.201,-3.1963,-3.2106,-3.2061,-3.2057,-3.2137,-3.2138,-3.2139,-3.2039,-3.2035,-3.203,-3.2026,-3.206,-3.2065,-3.2071,-3.2197,0,0,-3.2088,-3.209,0,0,0,0,0,0,0,0,-3.2007,-3.2016,-3.2067,-3.2064,-3.206,-3.2079,-3.2098,-3.2158,-3.204,-3.2046,-3.2029,-3.2024,-3.2072,-3.2076,-3.2092,-3.2199,-3.22,-3.2088,-3.2092,-3.2094,-3.2096,0,0,0,0,0,0,0,-3.2004,-3.2014,-3.2118,-3.2068,-3.2063,-3.2039,-3.2041,-3.2109,-3.2084,-3.2045,-3.2038,-3.2043,-3.2069,-3.2087,-3.2092,-3.2201,-3.2088,-3.2093,-3.2097,-3.2099,-3.2412,-3.2417,0,0,0,0,0,0,-3.2006,-3.2011,-3.2117,-3.2119,-3.2022,-3.2045,-3.2047,-3.2078,-3.2083,-3.208,-3.2047,-3.2038,-3.208,-3.2086,-3.2093,-3.2242,-3.2094,-3.2099,-3.2103,-3.2407,-3.2413,-3.2418,0,0,0,0,0,0,-3.2003,-3.2017,-3.2116,-3.2063,-3.2074,-3.2052,-3.2087,-3.2081,-3.2098,-3.2084,-3.208,-3.207,-3.2076,-3.2085,-3.2172,-3.2242,-3.2102,-3.2107,-3.2401,-3.2409,-3.2416,-3.2541,0,0,0,0,0,0,-3.2,-3.2016,-3.2064,-3.2065,-3.2077,-3.2195,-3.2091,-3.2085,-3.2108,-3.2097,-3.2105,-3.2102,-3.2073,-3.2164,-3.2177,-3.2247,-3.2111,-3.2395,-3.2405,-3.2413,-3.253,-3.2551,-3.257,0,0,0,0,0,-3.1995,-3.2098,-3.2067,-3.208,-3.2137,-3.2199,-3.2206,-3.2171,-3.2114,-3.2163,-3.2153,-3.2101,-3.2231,-3.2174,-3.2188,-3.226,-3.239,-3.2402,-3.2413,-3.2522,-3.2547,-3.2569,0,0,0,0,0,0,-3.2107,-3.2098,-3.2063,-3.217,-3.2186,-3.2182,-3.2242,-3.22,-3.2233,-3.2221,-3.2176,-3.2179,-3.2274,-3.2275,-3.2211,-3.2383,-3.2301,-3.2316,-3.2379,-3.2403,-3.2423,-3.2421,-3.2116,0,0,0,0,0,-3.2143,-3.2195,-3.2184,-3.2279,-3.2289,-3.2265,-3.229,-3.2262,-3.2277,-3.2283,-3.228,-3.2297,-3.2341,-3.2372,-3.2412,-3.2529,-3.253,-3.2585,-3.2605,-3.2621,-3.2635,-3.2698,-3.2723,-3.2455,-3.2455,-3.2455,0,0,-3.2221,-3.2222,-3.2258,-3.2302,-3.2311,-3.2366,-3.2271,-3.2332,-3.2373,-3.2293,-3.2375,-3.2373,-3.2389,-3.2491,-3.2536,-3.2495,-3.2709,-3.2635,-3.2649,-3.2654,-3.2712,-3.2737,-3.276,-3.2463,-3.2461,-3.246,0,0,-3.239,-3.2396,-3.2476,-3.2487,-3.2502,-3.2484,-3.2504,-3.2506,-3.2502,-3.2583,-3.2524,-3.2571,-3.2648,-3.2662,-3.2679,-3.2852,-3.2806,-3.2866,-3.297,-3.3031,-3.3052,-3.3071,-3.3134,-3.3157,-3.2879,-3.288,-3.288,0,-3.2485,-3.2564,-3.2523,-3.2589,-3.261,-3.2539,-3.2621,-3.2633,-3.266,-3.2677,-3.263,-3.2726,-3.2731,-3.2836,-3.2878,-3.2894,-3.2915,-3.2866,-3.3052,-3.3071,-3.3087,-3.3147,-3.3171,-3.2887,-3.2886,-3.2885,-3.2885,0,-3.268,-3.2736,-3.2799,-3.2828,-3.2856,-3.2929,-3.2899,-3.2932,-3.2901,-3.2888,-3.2972,-3.2975,-3.3015,-3.3037,-3.3007,-3.3139,-3.3113,-3.306,-3.2978,-3.3121,-3.3176,-3.3199,-3.2898,-3.2895,-3.2893,-3.2891,0,0,-3.2924,-3.2927,-3.2951,-3.2963,-3.2973,-3.3016,-3.3085,-3.3123,-3.3154,-3.3174,-3.3232,-3.3298,-3.3249,-3.3269,-3.3239,-3.3293,-3.3431,-3.3233,-3.3233,-3.3271,-3.3577,-3.3618,-3.3645,-3.3399,-3.3403,-3.3406,-3.3576,0,-3.3091,-3.3211,-3.3175,-3.3296,-3.3347,-3.328,-3.334,-3.3353,-3.3343,-3.3385,-3.3373,-3.3421,-3.3352,-3.3364,-3.3413,-3.3404,-3.3492,-3.339,-3.3454,-3.3456,-3.3454,-3.3674,-3.3718,-3.3878,-3.3597,-3.3601,-3.3603,0,-3.3304,-3.3333,-3.3459,-3.346,-3.348,-3.3536,-3.3568,-3.3608,-3.3621,-3.361,-3.3631,-3.359,-3.3658,-3.3574,-3.3668,-3.36,-3.3623,-3.3622,-3.3627,-3.3634,-3.3541,-3.3688,-3.3928,-3.3953,-3.3637,-3.3634,-3.3632,0,-3.3471,-3.3541,-3.3625,-3.3637,-3.3641,-3.3681,-3.3684,-3.3692,-3.3718,-3.3745,-3.3761,-3.3797,-3.3817,-3.3845,-3.3815,-3.3756,-3.3914,-3.3826,-3.3907,-3.3908,-3.3946,-3.3944,-3.4194,-3.3957,-3.3957,-3.3956,-3.3956,0,-3.3664,-3.3744,-3.37,-3.3753,-3.384,-3.3797,-3.3885,-3.3881,-3.3888,-3.3938,-3.3881,-3.3929,-3.3885,-3.3929,-3.3906,-3.3988,-3.3996,-3.399,-3.3983,-3.3996,-3.3998,-3.4013,-3.4002,-3.3963,-3.3961,-3.396,-3.3959,0,-3.3867,-3.3841,-3.3928,-3.3924,-3.3924,-3.3989,-3.3985,-3.4033,-3.4017,-3.4082,-3.4094,-3.407,-3.4119,-3.4091,-3.4141,-3.4125,-3.4232,-3.4209,-3.4228,-3.4223,-3.4306,-3.4299,-3.4577,-3.4611,-3.435,-3.4352,-3.4355,0,-3.3993,-3.4053,-3.4054,-3.4083,-3.409,-3.4138,-3.4164,-3.4123,-3.4152,-3.417,-3.4217,-3.426,-3.4293,-3.4375,-3.4362,-3.44,-3.4378,-3.4473,-3.4384,-3.4395,-3.4382,-3.438,-3.4386,-3.4492,-3.4495,-3.4497,-3.4499,0,-3.422,-3.4203,-3.4242,-3.4276,-3.4308,-3.4333,-3.4353,-3.438,-3.434,-3.4375,-3.4424,-3.445,-3.45,-3.4545,-3.4577,-3.458,-3.4534,-3.4527,-3.4548,-3.4563,-3.4573,-3.4571,-3.4279,-3.4521,-3.4519,-3.4518,-3.4516,-3.4515,-3.4389,-3.4439,-3.4448,-3.4493,-3.4504,-3.4524,-3.4569,-3.4558,-3.4599,-3.4637,-3.461,-3.4668,-3.4678,-3.4717,-3.4725,-3.477,-3.4732,-3.4763,-3.477,-3.4779,-3.4791,-3.4564,-3.4776,-3.4775,-3.4774,-3.4774,-3.4773,0,-3.4615,-3.4617,-3.4658,-3.4688,-3.4723,-3.4675,-3.4694,-3.4727,-3.4779,-3.4793,-3.4826,-3.4883,-3.4925,-3.4915,-3.4953,-3.4991,-3.4971,-3.5003,-3.5001,-3.5002,-3.4822,-3.4801,-3.5019,-3.5018,-3.5018,-3.5018,-3.5018,-3.5018,-3.4737,-3.4819,-3.4804,-3.4891,-3.4892,-3.4949,-3.4964,-3.4982,-3.4993,-3.5058,-3.5093,-3.5086,-3.509,-3.5128,-3.5164,-3.516,-3.5178,-3.5218,-3.5206,-3.5039,-3.5015,-3.4992,-3.4972,-3.5222,-3.5222,-3.5383,-3.5384,-3.5385]},{"header":{"parameterUnit":"m.s-1","parameterCategory":1,"la1":30.2991,"la2":30.254,"lo1":-89.0895,"lo2":-89.0444,"dy":0.0017,"dx":0.0017,"nx":28,"ny":28,"refTime":"2025-03-01T09:00:00:Z","depth":0,"parameterNumber":3,"parameterNumberName":"V-component_of_WINDS"},"data":[0,0,0,0,0,0,0,0,0,0,0,0,0,0,0,0,0,0,0,0,0,0,0,0,0,0,0,0,0,0,0,0,0,0,0,0,0,0,0,0,0,0,0,0,0,0,0,0,0,0,0,0,0,0,0,0,0,0,-5.9735,-5.9736,0,-5.9839,-5.984,-5.9842,-5.9774,-5.9771,-5.9768,-5.9765,-5.9867,-5.9873,-5.9878,0,0,0,0,0,0,0,0,0,0,0,0,0,-5.9472,-5.9477,-5.9735,-5.9736,-5.9737,-5.9839,-5.984,-5.9842,-5.9775,-5.9771,-5.9767,-5.9764,-5.9866,-5.9872,-5.9879,0,0,0,0,0,0,0,0,0,0,0,0,0,-5.9582,-5.9479,-5.9734,-5.9716,-5.9716,-5.9839,-5.984,-5.9842,-5.9776,-5.9771,-5.9766,-5.9762,-5.9863,-5.9871,-5.988,-6.0025,0,0,-5.9906,-5.9909,0,0,0,0,0,0,0,0,-5.9576,-5.9592,-5.9718,-5.9718,-5.9717,-5.9789,-5.9785,-5.9903,-5.9777,-5.9753,-5.9765,-5.976,-5.9845,-5.9854,-5.9884,-6.003,-6.0034,-5.9906,-5.9911,-5.9915,-5.9917,0,0,0,0,0,0,0,-5.9568,-5.9587,-5.9776,-5.972,-5.9719,-5.9701,-5.9712,-5.9807,-5.9823,-5.9755,-5.975,-5.9764,-5.9844,-5.9876,-5.9886,-6.0036,-5.9906,-5.9913,-5.9919,-5.9922,-6.0304,-6.0309,0,0,0,0,0,0,-5.9563,-5.9581,-5.9772,-5.9779,-5.9634,-5.971,-5.9721,-5.9771,-5.9822,-5.9826,-5.9767,-5.976,-5.9864,-5.9876,-5.9889,-6.0062,-5.9915,-5.9923,-5.9928,-6.0299,-6.0305,-6.0311,0,0,0,0,0,0,-5.9557,-5.9581,-5.9768,-5.9679,-5.9701,-5.9719,-5.9775,-5.9775,-5.9808,-5.9832,-5.9834,-5.9798,-5.9861,-5.9877,-5.9992,-6.0065,-5.9927,-5.9934,-6.0293,-6.0301,-6.0308,-6.041,0,0,0,0,0,0,-5.955,-5.9579,-5.9636,-5.9681,-5.9706,-5.9871,-5.978,-5.9781,-5.9823,-5.9814,-5.9861,-5.9864,-5.9858,-5.998,-6.0,-6.0074,-5.9941,-6.0286,-6.0296,-6.0305,-6.04,-6.042,-6.0437,0,0,0,0,0,-5.9541,-5.966,-5.9639,-5.9663,-5.9778,-5.9876,-5.989,-5.9882,-5.9829,-5.9885,-5.9901,-5.9863,-6.0053,-5.9992,-6.0014,-6.0092,-6.0282,-6.0294,-6.0305,-6.0392,-6.0416,-6.0436,0,0,0,0,0,0,-5.9621,-5.9665,-5.9643,-5.978,-5.9825,-5.9864,-5.9935,-5.9908,-5.9968,-5.9957,-5.9943,-5.9954,-6.0074,-6.0094,-6.0025,-6.0234,-6.0159,-6.0175,-6.0217,-6.0241,-6.0259,-6.0252,-5.9948,0,0,0,0,0,-5.9655,-5.9733,-5.9766,-5.9883,-5.9907,-5.9918,-5.996,-5.995,-5.9995,-6.0013,-6.0037,-6.0081,-6.015,-6.0196,-6.0261,-6.0402,-6.041,-6.0466,-6.0484,-6.05,-6.0514,-6.0589,-6.0614,-6.0348,-6.0348,-6.0348,0,0,-5.9726,-5.9759,-5.9809,-5.99,-5.9934,-6.0013,-5.9934,-6.0021,-6.0078,-6.0025,-6.0136,-6.0154,-6.0202,-6.033,-6.0387,-6.035,-6.0589,-6.0514,-6.0526,-6.0533,-6.0603,-6.0628,-6.0651,-6.0356,-6.0355,-6.0353,0,0,-5.9895,-5.9928,-6.003,-6.0065,-6.0117,-6.0123,-6.0148,-6.0191,-6.0202,-6.0312,-6.0274,-6.0341,-6.0462,-6.0497,-6.0531,-6.0712,-6.0679,-6.0733,-6.083,-6.0903,-6.0924,-6.0943,-6.1007,-6.103,-6.0748,-6.0748,-6.0748,0,-5.9975,-6.0095,-6.0085,-6.0175,-6.0216,-6.0173,-6.0274,-6.0308,-6.0378,-6.0407,-6.0364,-6.0514,-6.0543,-6.0678,-6.0723,-6.0751,-6.0777,-6.0728,-6.0922,-6.0941,-6.0958,-6.1019,-6.1043,-6.0754,-6.0753,-6.0753,-6.0752,0,-6.0191,-6.0274,-6.0349,-6.042,-6.0469,-6.0564,-6.0567,-6.0617,-6.0602,-6.0612,-6.0724,-6.0757,-6.0828,-6.0859,-6.0845,-6.0992,-6.0968,-6.0924,-6.0848,-6.099,-6.1047,-6.107,-6.0763,-6.0761,-6.0759,-6.0757,0,0,-6.0415,-6.0478,-6.0506,-6.0537,-6.0591,-6.0654,-6.0746,-6.0817,-6.0861,-6.091,-6.0986,-6.1088,-6.1048,-6.1086,-6.1076,-6.114,-6.128,-6.1088,-6.1089,-6.1123,-6.1443,-6.1476,-6.1504,-6.1258,-6.1263,-6.1266,-6.1439,0,-6.0587,-6.075,-6.0744,-6.0895,-6.0971,-6.093,-6.101,-6.1051,-6.1062,-6.1126,-6.1137,-6.121,-6.1152,-6.1175,-6.1236,-6.125,-6.1344,-6.1237,-6.1328,-6.1331,-6.1318,-6.1533,-6.1569,-6.1731,-6.1462,-6.1465,-6.1468,0,-6.081,-6.0869,-6.1029,-6.1071,-6.1102,-6.1175,-6.1238,-6.1301,-6.1345,-6.1348,-6.1391,-6.1369,-6.146,-6.1382,-6.1506,-6.1434,-6.147,-6.1482,-6.1488,-6.1496,-6.1409,-6.1548,-6.1782,-6.1807,-6.1503,-6.15,-6.1498,0,-6.0957,-6.1076,-6.1187,-6.1214,-6.1266,-6.1318,-6.1341,-6.1381,-6.1424,-6.1479,-6.1506,-6.157,-6.1606,-6.1655,-6.165,-6.1594,-6.1777,-6.1698,-6.1781,-6.1781,-6.1822,-6.1819,-6.2066,-6.1845,-6.1844,-6.1844,-6.1843,0,-6.1151,-6.125,-6.1254,-6.1322,-6.1431,-6.1421,-6.1529,-6.1547,-6.1582,-6.1652,-6.1619,-6.1685,-6.1675,-6.174,-6.1736,-6.184,-6.1856,-6.186,-6.1858,-6.1863,-6.1863,-6.1887,-6.1876,-6.185,-6.1849,-6.1848,-6.1847,0,-6.1334,-6.1341,-6.1459,-6.1498,-6.151,-6.1589,-6.1622,-6.1685,-6.1693,-6.1781,-6.1801,-6.1813,-6.1888,-6.1888,-6.1973,-6.197,-6.2097,-6.2082,-6.2083,-6.208,-6.2163,-6.2155,-6.2434,-6.2469,-6.2225,-6.2228,-6.223,0,-6.1457,-6.1533,-6.1581,-6.1626,-6.1653,-6.1726,-6.177,-6.1762,-6.1808,-6.1864,-6.192,-6.1992,-6.205,-6.217,-6.2185,-6.225,-6.2236,-6.2329,-6.2245,-6.2248,-6.2237,-6.2233,-6.224,-6.2345,-6.2348,-6.235,-6.2352,0,-6.1676,-6.1675,-6.174,-6.1807,-6.186,-6.1912,-6.1959,-6.1997,-6.1994,-6.2047,-6.2124,-6.2169,-6.2256,-6.2327,-6.2389,-6.2411,-6.2381,-6.2378,-6.2401,-6.2407,-6.2405,-6.2407,-6.2128,-6.2372,-6.237,-6.2369,-6.2368,-6.2367,-6.1833,-6.1898,-6.1942,-6.2015,-6.205,-6.2095,-6.2157,-6.2173,-6.2237,-6.2309,-6.2299,-6.2385,-6.2425,-6.2505,-6.2532,-6.2597,-6.2565,-6.2598,-6.2606,-6.2614,-6.2624,-6.2394,-6.2609,-6.2608,-6.2607,-6.2607,-6.2607,0,-6.2049,-6.2075,-6.2143,-6.2211,-6.2268,-6.2236,-6.2287,-6.2336,-6.2413,-6.2453,-6.2511,-6.2598,-6.2667,-6.2687,-6.2753,-6.2801,-6.2789,-6.2819,-6.2815,-6.282,-6.2649,-6.2623,-6.2827,-6.2827,-6.2827,-6.2827,-6.2827,-6.2827,-6.2169,-6.2277,-6.2282,-6.2406,-6.2431,-6.2516,-6.2547,-6.2588,-6.262,-6.272,-6.2778,-6.2791,-6.2823,-6.2891,-6.2952,-6.2955,-6.2981,-6.3016,-6.3015,-6.2855,-6.2833,-6.2811,-6.2787,-6.3022,-6.3022,-6.3181,-6.3182,-6.3183]}]]